TimeSAST,TemperatureF,Dew PointF,Humidity,Sea Level PressureIn,VisibilityMPH,Wind Direction,Wind SpeedMPH,Gust SpeedMPH,PrecipitationIn,Events,Conditions,WindDirDegrees,DateUTC
12:00 AM,44.6,37.4,76,30.33,-9999.0,NE,4.6,-,N/A,,Clear,40,2013-07-24 22:00:00
1:00 AM,41.0,35.6,81,30.33,-9999.0,WNW,3.5,-,N/A,,Clear,300,2013-07-24 23:00:00
2:00 AM,42,35,70,30.35,31,NW,3.5,,,,,320,2013-07-25 00:00:00
2:00 AM,42.8,35.6,76,30.30,-9999.0,NW,4.6,-,N/A,,Clear,320,2013-07-25 00:00:00
3:00 AM,39.2,33.8,81,30.30,-9999.0,NNW,4.6,-,N/A,,Clear,330,2013-07-25 01:00:00
4:00 AM,48.2,35.6,62,30.30,-9999.0,SW,4.6,-,N/A,,Clear,230,2013-07-25 02:00:00
5:00 AM,42,35,70,30.32,12,NNW,4.6,,,,Clear,330,2013-07-25 03:00:00
5:00 AM,42.8,35.6,76,30.30,-9999.0,NNW,3.5,-,N/A,,Clear,330,2013-07-25 03:00:00
6:00 AM,46.4,35.6,66,30.27,-9999.0,Variable,2.3,-,N/A,,Clear,0,2013-07-25 04:00:00
7:00 AM,44.6,33.8,66,30.27,-9999.0,NNE,4.6,-,N/A,,Clear,30,2013-07-25 05:00:00
8:00 AM,47,34,49,30.30,12,East,3.5,,,,Clear,90,2013-07-25 06:00:00
8:00 AM,46.4,33.8,62,30.27,-9999.0,East,3.5,-,N/A,,Clear,100,2013-07-25 06:00:00
9:00 AM,50.0,39.2,66,30.30,-9999.0,Variable,2.3,-,N/A,,Clear,0,2013-07-25 07:00:00
10:00 AM,57.2,39.2,51,30.33,-9999.0,Variable,1.2,-,N/A,,Clear,0,2013-07-25 08:00:00
11:00 AM,61,39,32,30.32,12,,2.3,,,,Clear,,2013-07-25 09:00:00
11:00 AM,60.8,35.6,39,30.30,-9999.0,Variable,2.3,-,N/A,,Clear,0,2013-07-25 09:00:00
12:00 PM,64.4,39.2,40,30.30,-9999.0,Variable,3.5,-,N/A,,Clear,0,2013-07-25 10:00:00
1:00 PM,66.2,42.8,43,30.24,-9999.0,NNW,4.6,-,N/A,,Clear,340,2013-07-25 11:00:00
2:00 PM,68,42,28,30.23,12,WNW,10.4,,,,Clear,300,2013-07-25 12:00:00
2:00 PM,68.0,42.8,40,30.21,-9999.0,WNW,10.4,-,N/A,,Clear,300,2013-07-25 12:00:00
3:00 PM,64.4,46.4,52,30.21,-9999.0,WSW,6.9,-,N/A,,Clear,250,2013-07-25 13:00:00
4:00 PM,59.0,44.6,59,30.21,-9999.0,South,8.1,-,N/A,,Clear,170,2013-07-25 14:00:00
5:00 PM,58,46,55,30.22,12,SE,5.8,,,,Scattered Clouds,140,2013-07-25 15:00:00
5:00 PM,59.0,46.4,63,30.21,-9999.0,SE,5.8,-,N/A,,Clear,140,2013-07-25 15:00:00
6:00 PM,53.6,46.4,77,30.21,-9999.0,ENE,2.3,-,N/A,,Clear,60,2013-07-25 16:00:00
7:00 PM,51.8,46.4,82,30.21,-9999.0,NE,3.5,-,N/A,,Clear,50,2013-07-25 17:00:00
8:00 PM,51,46,75,30.22,12,NNE,3.5,,,,Clear,30,2013-07-25 18:00:00
8:00 PM,50.0,46.4,87,30.21,-9999.0,NNE,3.5,-,N/A,,Clear,30,2013-07-25 18:00:00
9:00 PM,50.0,44.6,82,30.18,-9999.0,NNE,3.5,-,N/A,,Clear,20,2013-07-25 19:00:00
10:00 PM,50.0,44.6,82,30.18,-9999.0,NNE,2.3,-,N/A,,Clear,20,2013-07-25 20:00:00
11:00 PM,48.2,44.6,87,30.15,-9999.0,NNE,3.5,-,N/A,,Clear,20,2013-07-25 21:00:00